TimePST,TemperatureF,Dew PointF,Humidity,Sea Level PressureIn,VisibilityMPH,Wind Direction,Wind SpeedMPH,Gust SpeedMPH,PrecipitationIn,Events,Conditions,WindDirDegrees,DateUTC
12:53 AM,34.0,8.1,34,29.99,10.0,Calm,Calm,-,N/A,,Clear,0,2013-02-07 08:53:00
1:53 AM,33.1,5.0,31,29.96,10.0,Calm,Calm,-,N/A,,Clear,0,2013-02-07 09:53:00
2:53 AM,35.1,-0.9,22,29.93,10.0,SSE,11.5,19.6,N/A,,Clear,150,2013-02-07 10:53:00
3:53 AM,37.0,-2.0,19,29.89,10.0,South,18.4,35.7,N/A,,Clear,190,2013-02-07 11:53:00
4:53 AM,37.9,-11.0,12,29.90,10.0,SSW,20.7,39.1,N/A,,Clear,200,2013-02-07 12:53:00
5:53 AM,37.9,-9.9,13,29.89,10.0,SSW,25.3,35.7,N/A,,Clear,200,2013-02-07 13:53:00
6:53 AM,37.9,-9.9,13,29.89,10.0,SSW,21.9,36.8,N/A,,Scattered Clouds,200,2013-02-07 14:53:00
7:53 AM,37.0,-2.9,18,29.90,10.0,SSW,16.1,31.1,N/A,,Mostly Cloudy,200,2013-02-07 15:53:00
8:53 AM,37.0,-0.0,21,29.92,10.0,SSW,16.1,26.5,N/A,,Overcast,200,2013-02-07 16:53:00
9:53 AM,34.0,14.0,44,29.95,10.0,SSW,17.3,29.9,N/A,,Overcast,200,2013-02-07 17:53:00
10:53 AM,35.1,10.9,37,29.96,10.0,SSW,16.1,25.3,N/A,,Overcast,200,2013-02-07 18:53:00
11:53 AM,35.1,8.1,33,29.94,10.0,SSW,12.7,28.8,N/A,,Overcast,210,2013-02-07 19:53:00
12:31 PM,32.0,17.6,55,29.93,3.0,SSW,11.5,24.2,0.00,Snow,Light Snow,210,2013-02-07 20:31:00
12:44 PM,33.8,17.6,52,29.92,9.0,SSW,11.5,18.4,0.00,,Overcast,210,2013-02-07 20:44:00
12:53 PM,34.0,17.1,50,29.90,10.0,South,12.7,23.0,0.00,,Mostly Cloudy,190,2013-02-07 20:53:00
1:08 PM,35.6,17.6,48,29.91,10.0,SSW,12.7,23.0,N/A,,Overcast,200,2013-02-07 21:08:00
1:29 PM,33.8,21.2,60,29.90,2.5,SSW,12.7,-,0.00,Snow,Light Snow,200,2013-02-07 21:29:00
1:32 PM,32.0,21.2,64,29.91,1.8,SSW,10.4,-,0.00,Snow,Light Snow,210,2013-02-07 21:32:00
1:45 PM,30.2,23.0,75,29.90,0.5,SSW,5.8,-,0.00,Snow,Snow,200,2013-02-07 21:45:00
1:53 PM,30.9,24.1,76,29.90,0.5,SSW,8.1,-,0.00,Snow,Snow,200,2013-02-07 21:53:00
2:01 PM,30.2,24.8,80,29.90,0.2,SSW,9.2,-,0.00,Snow,Heavy Snow,200,2013-02-07 22:01:00
2:24 PM,30.2,24.8,80,29.89,1.0,South,8.1,-,0.00,Snow,Light Snow,180,2013-02-07 22:24:00
2:53 PM,30.9,25.0,79,29.88,0.5,South,10.4,-,0.00,Snow,Snow,190,2013-02-07 22:53:00
3:19 PM,30.2,24.8,80,29.88,1.2,South,8.1,-,0.00,Snow,Light Snow,190,2013-02-07 23:19:00
3:26 PM,30.2,24.8,80,29.87,1.2,South,6.9,-,0.00,Snow,Light Snow,180,2013-02-07 23:26:00
3:30 PM,30.2,24.8,80,29.88,3.0,South,9.2,-,0.00,Snow,Light Snow,180,2013-02-07 23:30:00
3:40 PM,30.2,24.8,80,29.88,0.8,SSW,11.5,20.7,0.01,Snow,Light Snow,200,2013-02-07 23:40:00
3:50 PM,30.2,24.8,80,29.87,0.2,Calm,Calm,-,0.01,Snow,Heavy Snow,0,2013-02-07 23:50:00
3:53 PM,30.0,25.0,82,29.85,0.2,South,5.8,-,0.02,Snow,Heavy Snow,190,2013-02-07 23:53:00
4:01 PM,30.2,24.8,80,29.87,2.0,South,4.6,-,0.00,Snow,Light Snow,190,2013-02-08 00:01:00
4:04 PM,30.2,24.8,80,29.86,5.0,Calm,Calm,-,0.00,Snow,Light Snow,0,2013-02-08 00:04:00
4:12 PM,30.2,24.8,80,29.87,8.0,Calm,Calm,-,0.00,,Overcast,0,2013-02-08 00:12:00
4:20 PM,30.2,23.0,75,29.88,2.5,Calm,Calm,-,0.00,Snow,Light Snow,0,2013-02-08 00:20:00
4:23 PM,30.2,23.0,75,29.88,0.8,Variable,4.6,-,0.00,Snow,Light Snow,0,2013-02-08 00:23:00
4:34 PM,28.4,23.0,80,29.88,0.2,Calm,Calm,-,0.01,Snow,Heavy Snow,0,2013-02-08 00:34:00
4:41 PM,28.4,21.2,74,29.88,0.5,Calm,Calm,-,0.01,Snow,Snow,0,2013-02-08 00:41:00
4:47 PM,28.4,21.2,74,29.88,1.0,Calm,Calm,-,0.01,Snow,Light Snow,0,2013-02-08 00:47:00
4:48 PM,28.0,21.9,78,29.87,1.0,Calm,Calm,-,0.01,Snow,Light Snow,0,2013-02-08 00:48:00
4:54 PM,28.4,21.2,74,29.88,3.0,South,8.1,-,0.00,Snow,Light Snow,180,2013-02-08 00:54:00
4:59 PM,28.4,21.2,74,29.89,5.0,Variable,3.5,-,0.00,Snow,Light Snow,0,2013-02-08 00:59:00
5:02 PM,28.4,21.2,74,29.89,2.5,Variable,5.8,-,0.00,Snow,Light Snow,0,2013-02-08 01:02:00
5:08 PM,28.4,19.4,69,29.88,0.8,Variable,6.9,-,0.00,Snow,Light Snow,0,2013-02-08 01:08:00
5:19 PM,26.6,19.4,74,29.89,2.0,South,13.8,19.6,0.00,Snow,Light Snow,180,2013-02-08 01:19:00
5:22 PM,28.4,17.6,64,29.88,5.0,South,13.8,19.6,0.00,Snow,Light Snow,180,2013-02-08 01:22:00
5:34 PM,26.6,17.6,69,29.89,8.0,South,13.8,21.9,0.00,,Overcast,170,2013-02-08 01:34:00
5:53 PM,26.1,18.0,71,29.88,9.0,SSE,11.5,-,0.00,,Overcast,160,2013-02-08 01:53:00
6:53 PM,25.0,14.0,63,29.86,10.0,SSE,6.9,18.4,N/A,,Clear,160,2013-02-08 02:53:00
7:53 PM,23.0,12.9,65,29.88,10.0,South,4.6,-,N/A,,Partly Cloudy,170,2013-02-08 03:53:00
8:53 PM,21.9,12.9,68,29.86,10.0,SSW,8.1,-,N/A,,Clear,200,2013-02-08 04:53:00
9:53 PM,21.0,12.9,71,29.86,10.0,SW,4.6,-,N/A,,Clear,220,2013-02-08 05:53:00
10:53 PM,21.9,15.1,75,29.86,10.0,NNE,4.6,-,N/A,,Overcast,20,2013-02-08 06:53:00
11:03 PM,21.2,15.8,80,29.84,10.0,Calm,Calm,-,N/A,,Overcast,0,2013-02-08 07:03:00
11:53 PM,21.0,15.1,78,29.86,10.0,Calm,Calm,-,N/A,,Overcast,0,2013-02-08 07:53:00